TimeCDT,TemperatureF,Dew PointF,Humidity,Sea Level PressureIn,VisibilityMPH,Wind Direction,Wind SpeedMPH,Gust SpeedMPH,PrecipitationIn,Events,Conditions,WindDirDegrees,DateUTC
12:15 AM,73.2,72.3,97,30.13,7.0,Calm,Calm,-,N/A,,Clear,0,2013-08-27 05:15:00
12:35 AM,72.7,72.0,98,30.13,7.0,Calm,Calm,-,N/A,,Clear,0,2013-08-27 05:35:00
12:55 AM,71.8,71.6,99,30.14,4.0,Calm,Calm,-,N/A,,Scattered Clouds,0,2013-08-27 05:55:00
1:15 AM,71.8,71.8,100,30.13,4.0,Calm,Calm,-,N/A,,Scattered Clouds,0,2013-08-27 06:15:00
1:35 AM,72.5,72.5,100,30.13,5.0,Calm,Calm,-,N/A,,Scattered Clouds,0,2013-08-27 06:35:00
1:55 AM,72.3,72.1,99,30.13,5.0,Calm,Calm,-,N/A,,Scattered Clouds,0,2013-08-27 06:55:00
2:15 AM,71.8,71.6,99,30.12,5.0,Calm,Calm,-,N/A,,Scattered Clouds,0,2013-08-27 07:15:00
2:35 AM,72.0,72.0,100,30.12,5.0,SW,3.5,-,N/A,,Clear,220,2013-08-27 07:35:00
2:55 AM,72.0,72.0,100,30.11,5.0,SW,3.5,-,N/A,,Clear,220,2013-08-27 07:55:00
3:15 AM,72.3,72.1,99,30.11,5.0,SSW,3.5,-,N/A,,Clear,210,2013-08-27 08:15:00
3:35 AM,71.8,71.6,99,30.11,5.0,Calm,Calm,-,N/A,,Clear,0,2013-08-27 08:35:00
3:55 AM,71.2,71.1,99,30.11,5.0,Calm,Calm,-,N/A,,Clear,0,2013-08-27 08:55:00
4:15 AM,71.1,71.1,100,30.11,5.0,Calm,Calm,-,N/A,,Clear,0,2013-08-27 09:15:00
4:35 AM,70.2,70.2,100,30.11,5.0,Calm,Calm,-,N/A,,Clear,0,2013-08-27 09:35:00
4:55 AM,70.7,70.7,100,30.11,5.0,Calm,Calm,-,N/A,,Clear,0,2013-08-27 09:55:00
5:15 AM,70.9,70.9,100,30.10,5.0,Calm,Calm,-,N/A,,Clear,0,2013-08-27 10:15:00
5:35 AM,70.0,70.0,100,30.11,5.0,Calm,Calm,-,N/A,,Clear,0,2013-08-27 10:35:00
5:55 AM,69.8,69.8,100,30.11,5.0,Calm,Calm,-,N/A,,Clear,0,2013-08-27 10:55:00
6:15 AM,69.8,69.8,100,30.11,2.0,Calm,Calm,-,N/A,,Clear,0,2013-08-27 11:15:00
6:35 AM,70.0,70.0,100,30.12,4.0,Calm,Calm,-,N/A,,Clear,0,2013-08-27 11:35:00
6:55 AM,70.7,70.7,100,30.12,4.0,Calm,Calm,-,N/A,,Clear,0,2013-08-27 11:55:00
7:15 AM,71.6,71.6,100,30.12,4.0,Calm,Calm,-,N/A,,Clear,0,2013-08-27 12:15:00
7:35 AM,72.5,72.3,99,30.12,5.0,Calm,Calm,-,N/A,,Clear,0,2013-08-27 12:35:00
7:55 AM,73.8,72.9,97,30.12,5.0,Calm,Calm,-,N/A,,Clear,0,2013-08-27 12:55:00
8:15 AM,75.4,73.6,94,30.12,7.0,SW,4.6,-,N/A,,Clear,230,2013-08-27 13:15:00
8:35 AM,76.5,73.4,90,30.12,7.0,SW,6.9,-,N/A,,Clear,230,2013-08-27 13:35:00
8:55 AM,77.7,73.6,87,30.12,10.0,WSW,8.1,-,N/A,,Clear,250,2013-08-27 13:55:00
9:15 AM,78.3,73.2,84,30.12,10.0,SW,5.8,-,N/A,,Clear,230,2013-08-27 14:15:00
9:35 AM,79.9,73.8,81,30.12,10.0,SW,4.6,-,N/A,,Clear,230,2013-08-27 14:35:00
9:55 AM,80.6,73.6,79,30.13,10.0,WSW,5.8,-,N/A,,Clear,240,2013-08-27 14:55:00
10:15 AM,80.8,72.9,77,30.13,10.0,WSW,9.2,-,N/A,,Clear,250,2013-08-27 15:15:00
10:35 AM,82.2,73.8,75,30.12,10.0,WSW,8.1,-,N/A,,Clear,240,2013-08-27 15:35:00
10:55 AM,83.7,73.2,71,30.12,10.0,WSW,9.2,-,N/A,,Clear,250,2013-08-27 15:55:00
11:15 AM,85.3,73.9,69,30.12,10.0,West,5.8,-,N/A,,Clear,270,2013-08-27 16:15:00
11:35 AM,86.0,73.8,67,30.11,10.0,WSW,5.8,-,N/A,,Clear,250,2013-08-27 16:35:00
11:55 AM,86.7,73.4,64,30.11,10.0,WSW,4.6,-,N/A,,Clear,240,2013-08-27 16:55:00
12:15 PM,85.5,73.4,67,30.10,10.0,West,3.5,-,N/A,,Clear,270,2013-08-27 17:15:00
12:35 PM,86.2,73.6,66,30.10,10.0,West,5.8,-,N/A,,Clear,260,2013-08-27 17:35:00
12:55 PM,86.7,72.9,63,30.09,10.0,WSW,5.8,-,N/A,,Clear,250,2013-08-27 17:55:00
1:15 PM,87.3,73.9,64,30.08,10.0,SSW,5.8,-,N/A,,Clear,210,2013-08-27 18:15:00
1:35 PM,87.8,73.9,63,30.08,10.0,SW,5.8,-,N/A,,Clear,230,2013-08-27 18:35:00
1:55 PM,88.9,74.8,63,30.07,10.0,SSW,6.9,-,N/A,,Clear,200,2013-08-27 18:55:00
2:15 PM,88.7,73.6,61,30.07,10.0,SW,6.9,17.3,N/A,,Clear,230,2013-08-27 19:15:00
2:35 PM,89.4,74.1,60,30.06,10.0,West,5.8,-,N/A,,Clear,260,2013-08-27 19:35:00
2:55 PM,87.8,73.9,63,30.05,10.0,SSW,5.8,-,N/A,,Clear,210,2013-08-27 19:55:00
3:15 PM,88.0,73.9,63,30.05,10.0,West,3.5,-,N/A,,Clear,260,2013-08-27 20:15:00
3:35 PM,89.4,74.3,61,30.05,10.0,SW,4.6,-,N/A,,Scattered Clouds,230,2013-08-27 20:35:00
3:55 PM,87.8,73.9,63,30.04,10.0,SW,5.8,-,N/A,,Mostly Cloudy,220,2013-08-27 20:55:00
4:15 PM,87.8,73.0,61,30.04,10.0,WSW,3.5,-,N/A,,Mostly Cloudy,240,2013-08-27 21:15:00
4:35 PM,87.3,74.8,66,30.04,10.0,SSW,4.6,-,N/A,,Scattered Clouds,210,2013-08-27 21:35:00
4:55 PM,87.1,74.5,66,30.04,10.0,SW,5.8,-,N/A,,Clear,220,2013-08-27 21:55:00
5:15 PM,87.1,75.4,68,30.04,10.0,SSW,5.8,-,N/A,,Clear,210,2013-08-27 22:15:00
5:35 PM,86.5,75.7,70,30.04,10.0,SSW,5.8,-,N/A,,Clear,210,2013-08-27 22:35:00
5:55 PM,86.2,75.2,70,30.04,10.0,SSW,5.8,-,N/A,,Scattered Clouds,200,2013-08-27 22:55:00
6:15 PM,84.7,75.2,73,30.04,10.0,SSW,6.9,-,N/A,,Scattered Clouds,200,2013-08-27 23:15:00
6:35 PM,84.2,75.2,74,30.03,10.0,SSW,5.8,-,N/A,,Clear,200,2013-08-27 23:35:00
6:55 PM,83.3,75.7,78,30.04,10.0,SSW,4.6,-,N/A,,Clear,200,2013-08-27 23:55:00
7:15 PM,82.4,76.1,81,30.04,10.0,SSW,4.6,-,N/A,,Scattered Clouds,200,2013-08-28 00:15:00
7:35 PM,81.5,75.7,83,30.04,10.0,SSW,4.6,-,N/A,,Scattered Clouds,200,2013-08-28 00:35:00
7:55 PM,80.6,75.7,85,30.04,10.0,Calm,Calm,-,N/A,,Mostly Cloudy,0,2013-08-28 00:55:00
8:15 PM,79.3,75.7,89,30.04,10.0,SSW,3.5,-,N/A,,Scattered Clouds,200,2013-08-28 01:15:00
8:35 PM,78.8,75.6,90,30.05,10.0,SSW,3.5,-,N/A,,Scattered Clouds,210,2013-08-28 01:35:00
8:55 PM,78.1,75.4,91,30.05,10.0,SW,3.5,-,N/A,,Mostly Cloudy,220,2013-08-28 01:55:00
9:15 PM,77.9,75.2,91,30.05,10.0,SSW,3.5,-,N/A,,Scattered Clouds,210,2013-08-28 02:15:00
9:35 PM,77.5,74.8,91,30.06,10.0,SSW,4.6,-,N/A,,Clear,210,2013-08-28 02:35:00
9:55 PM,77.9,75.0,91,30.06,10.0,SW,4.6,-,N/A,,Clear,230,2013-08-28 02:55:00
10:15 PM,77.5,74.5,90,30.06,10.0,SW,3.5,-,N/A,,Clear,220,2013-08-28 03:15:00
10:35 PM,77.0,74.5,92,30.06,10.0,SSW,3.5,-,N/A,,Clear,210,2013-08-28 03:35:00
10:55 PM,76.5,74.3,93,30.05,10.0,SW,3.5,-,N/A,,Clear,220,2013-08-28 03:55:00
11:15 PM,76.5,74.3,93,30.05,10.0,SW,3.5,-,N/A,,Clear,220,2013-08-28 04:15:00
11:35 PM,76.1,73.8,92,30.05,10.0,Calm,Calm,-,N/A,,Clear,0,2013-08-28 04:35:00
11:55 PM,75.4,73.6,94,30.05,7.0,SSW,3.5,-,N/A,,Clear,210,2013-08-28 04:55:00